Regional Weather Roundup
Issued by NWS Charleston, WV

Home | Current Version | Previous Version | Graphics & Text | Print | Product List | Glossary On
Versions: 1 2 3 4 5 6 7 8 9 10 11 12 13 14 15 16 17 18 19 20 21 22 23 24 25 26 27 28
000
ASUS41 KRLX 151710
RWRRLX
West Virginia Regional Weather Roundup
National Weather Service Charleston WV
100 PM EDT TUE APR 15 2014

Note: "fair" indicates few or no clouds below 12,000 feet with no
significant weather and/or obstructions to visibility.

WVZ003-151800-
Northern Panhandle of West Virginia

CITY           SKY/WX    TMP DP  RH WIND       PRES   REMARKS
WHEELING       LGT SNOW  33  28  81 W16       29.89R
$$

WVZ009-151800-
Northwest West Virginia

CITY           SKY/WX    TMP DP  RH WIND       PRES   REMARKS
PARKERSBURG    LGT SNOW  33  31  92 W8        30.00R VSB 3/4
$$

WVZ006-151800-
Western West Virginia

CITY           SKY/WX    TMP DP  RH WIND       PRES   REMARKS
HUNTINGTON     LGT SNOW  34  32  92 NW7G14    30.02R FOG
$$

WVZ015-151800-
West Central West Virginia

CITY           SKY/WX    TMP DP  RH WIND       PRES   REMARKS
CHARLESTON     LGT SNOW  34  33  96 W8G18     29.97R VSB 1
$$

WVZ031-151800-
North Central West Virginia

CITY           SKY/WX    TMP DP  RH WIND       PRES   REMARKS
CLARKSBURG     LGT SNOW  36  33  89 W12       29.87R FOG
MORGANTOWN     LGT SNOW  38  33  82 NW5       29.87R
$$

WVZ035-042-045-151800-
South Central West Virginia

CITY           SKY/WX    TMP DP  RH WIND       PRES   REMARKS
BECKLEY        LGT SNOW  33  30  88 NW13G23   29.85R FOG
BLUEFIELD      RAIN      37  32  82 NW12G21   29.85R
LEWISBURG      CLOUDY    38  32  80 W10G16    29.80F
$$

WVZ047-151800-
Northern Mountains of West Virginia

CITY           SKY/WX    TMP DP  RH WIND       PRES   REMARKS
ELKINS         LGT RAIN  39  34  82 NW9       29.82R
$$

WVZ052-151800-
Eastern Panhandle of West Virginia

CITY           SKY/WX    TMP DP  RH WIND       PRES   REMARKS
MARTINSBURG    LGT RAIN  48  39  71 NW15G28   29.69R
PETERSBURG     RAIN      53  44  70 NW16      29.74R
$$



USA.gov is the U.S. government's official web portal to all federal, state and local government web resources and services.